Time,TemperatureF,DewpointF,PressureIn,WindDirection,WindDirectionDegrees,WindSpeedMPH,WindSpeedGustMPH,Humidity,HourlyPrecipIn,Conditions,Clouds,dailyrainin,SoftwareType,DateUTC
2013-05-06 00:02:00,59.0,42.0,30.14,ESE,114,2.0,5.0,54,0.00,,,0.00,,2013-05-06 04:02:00,
2013-05-06 00:12:00,59.0,42.0,30.14,ESE,114,2.0,5.0,54,0.00,,,0.00,,2013-05-06 04:12:00,
2013-05-06 00:23:00,59.0,41.0,30.14,ESE,107,2.0,4.0,52,0.00,,,0.00,,2013-05-06 04:23:00,
2013-05-06 00:32:00,58.0,41.0,30.15,ESE,118,0.0,3.0,54,0.00,,,0.00,,2013-05-06 04:32:00,
2013-05-06 00:43:00,58.0,41.0,30.15,ESE,118,0.0,3.0,54,0.00,,,0.00,,2013-05-06 04:43:00,
2013-05-06 00:52:00,56.0,42.0,30.15,SE,130,0.0,2.0,59,0.00,,,0.00,,2013-05-06 04:52:00,
2013-05-06 01:02:00,56.0,42.0,30.15,SE,130,0.0,2.0,60,0.00,,,0.00,,2013-05-06 05:02:00,
2013-05-06 01:12:00,56.0,42.0,30.15,SE,130,0.0,2.0,60,0.00,,,0.00,,2013-05-06 05:12:00,
2013-05-06 01:22:00,54.0,42.0,30.15,SE,126,0.0,3.0,64,0.00,,,0.00,,2013-05-06 05:22:00,
2013-05-06 01:32:00,52.0,41.0,30.15,SE,126,0.0,1.0,67,0.00,,,0.00,,2013-05-06 05:32:00,
2013-05-06 01:42:00,52.0,41.0,30.15,SE,126,0.0,1.0,67,0.00,,,0.00,,2013-05-06 05:42:00,
2013-05-06 01:52:00,56.0,43.0,30.14,ESE,110,2.0,3.0,61,0.00,,,0.00,,2013-05-06 05:52:00,
2013-05-06 02:02:00,56.0,42.0,30.14,SE,134,1.0,3.0,59,0.00,,,0.00,,2013-05-06 06:02:00,
2013-05-06 02:12:00,56.0,42.0,30.14,SE,134,1.0,3.0,59,0.00,,,0.00,,2013-05-06 06:12:00,
2013-05-06 02:21:00,55.0,42.0,30.14,ESE,121,2.0,3.0,62,0.00,,,0.00,,2013-05-06 06:21:00,
2013-05-06 02:32:00,55.0,42.0,30.14,SE,132,2.0,4.0,62,0.00,,,0.00,,2013-05-06 06:32:00,
2013-05-06 02:42:00,55.0,42.0,30.14,SE,132,2.0,4.0,62,0.00,,,0.00,,2013-05-06 06:42:00,
2013-05-06 02:52:00,54.0,42.0,30.14,SE,132,2.0,4.0,63,0.00,,,0.00,,2013-05-06 06:52:00,
2013-05-06 03:01:00,53.0,41.0,30.14,SE,134,2.0,3.0,64,0.00,,,0.00,,2013-05-06 07:01:00,
2013-05-06 03:11:00,53.0,41.0,30.14,SE,134,2.0,3.0,64,0.00,,,0.00,,2013-05-06 07:11:00,
2013-05-06 03:22:00,53.0,41.0,30.14,SE,146,0.0,4.0,63,0.00,,,0.00,,2013-05-06 07:22:00,
2013-05-06 03:32:00,53.0,39.0,30.14,SE,146,1.0,3.0,58,0.00,,,0.00,,2013-05-06 07:32:00,
2013-05-06 03:42:00,53.0,39.0,30.14,SE,146,1.0,3.0,58,0.00,,,0.00,,2013-05-06 07:42:00,
2013-05-06 03:52:00,53.0,36.0,30.14,SE,131,2.0,4.0,52,0.00,,,0.00,,2013-05-06 07:52:00,
2013-05-06 04:02:00,53.0,35.0,30.14,SSE,150,2.0,4.0,50,0.00,,,0.00,,2013-05-06 08:02:00,
2013-05-06 04:12:00,53.0,35.0,30.14,SSE,150,2.0,4.0,50,0.00,,,0.00,,2013-05-06 08:12:00,
2013-05-06 04:22:00,53.0,35.0,30.14,SE,138,2.0,4.0,50,0.00,,,0.00,,2013-05-06 08:22:00,
2013-05-06 04:32:00,53.0,34.0,30.14,SE,134,2.0,4.0,49,0.00,,,0.00,,2013-05-06 08:32:00,
2013-05-06 04:42:00,53.0,34.0,30.14,SE,134,2.0,4.0,49,0.00,,,0.00,,2013-05-06 08:42:00,
2013-05-06 04:52:00,52.0,33.0,30.14,SE,132,1.0,4.0,48,0.00,,,0.00,,2013-05-06 08:52:00,
2013-05-06 05:02:00,52.0,33.0,30.14,SE,132,2.0,3.0,49,0.00,,,0.00,,2013-05-06 09:02:00,
2013-05-06 05:11:00,52.0,33.0,30.14,SE,132,2.0,3.0,49,0.00,,,0.00,,2013-05-06 09:11:00,
2013-05-06 05:22:00,52.0,34.0,30.14,SE,140,1.0,3.0,50,0.00,,,0.00,,2013-05-06 09:22:00,
2013-05-06 05:33:00,51.0,34.0,30.15,SE,136,1.0,3.0,51,0.00,,,0.00,,2013-05-06 09:33:00,
2013-05-06 05:43:00,51.0,34.0,30.15,SE,136,1.0,3.0,51,0.00,,,0.00,,2013-05-06 09:43:00,
2013-05-06 05:53:00,51.0,34.0,30.16,SE,136,1.0,4.0,52,0.00,,,0.00,,2013-05-06 09:53:00,
2013-05-06 06:03:00,51.0,34.0,30.16,ESE,119,2.0,3.0,53,0.00,,,0.00,,2013-05-06 10:03:00,
2013-05-06 06:12:00,51.0,34.0,30.16,ESE,119,2.0,3.0,53,0.00,,,0.00,,2013-05-06 10:12:00,
2013-05-06 06:22:00,51.0,34.0,30.16,SE,144,2.0,4.0,53,0.00,,,0.00,,2013-05-06 10:22:00,
2013-05-06 06:33:00,50.0,35.0,30.16,SSE,150,1.0,3.0,56,0.00,,,0.00,,2013-05-06 10:33:00,
2013-05-06 06:42:00,50.0,35.0,30.16,SSE,150,1.0,3.0,56,0.00,,,0.00,,2013-05-06 10:42:00,
2013-05-06 06:52:00,50.0,35.0,30.17,SE,129,2.0,4.0,56,0.00,,,0.00,,2013-05-06 10:52:00,
2013-05-06 07:02:00,50.0,35.0,30.17,SE,138,1.0,4.0,57,0.00,,,0.00,,2013-05-06 11:02:00,
2013-05-06 07:12:00,50.0,35.0,30.17,SE,138,1.0,4.0,57,0.00,,,0.00,,2013-05-06 11:12:00,
2013-05-06 07:22:00,49.0,35.0,30.17,SSE,153,1.0,3.0,59,0.00,,,0.00,,2013-05-06 11:22:00,
2013-05-06 07:32:00,50.0,36.0,30.18,SE,136,2.0,4.0,59,0.00,,,0.00,,2013-05-06 11:32:00,
2013-05-06 07:42:00,50.0,36.0,30.18,SE,136,2.0,4.0,59,0.00,,,0.00,,2013-05-06 11:42:00,
2013-05-06 07:52:00,51.0,37.0,30.18,SSE,157,2.0,4.0,59,0.00,,,0.00,,2013-05-06 11:52:00,
2013-05-06 08:02:00,51.0,38.0,30.18,SE,143,1.0,4.0,62,0.00,,,0.00,,2013-05-06 12:02:00,
2013-05-06 08:12:00,51.0,38.0,30.18,SE,143,1.0,4.0,62,0.00,,,0.00,,2013-05-06 12:12:00,
2013-05-06 08:21:00,53.0,39.0,30.19,SSE,165,2.0,4.0,60,0.00,,,0.00,,2013-05-06 12:21:00,
2013-05-06 08:32:00,54.0,39.0,30.19,SSE,161,2.0,4.0,56,0.00,,,0.00,,2013-05-06 12:32:00,
2013-05-06 08:42:00,54.0,39.0,30.19,SSE,161,2.0,4.0,56,0.00,,,0.00,,2013-05-06 12:42:00,
2013-05-06 08:52:00,55.0,40.0,30.19,SSW,193,1.0,4.0,56,0.00,,,0.00,,2013-05-06 12:52:00,
2013-05-06 09:01:00,56.0,39.0,30.19,SE,126,3.0,7.0,53,0.00,,,0.00,,2013-05-06 13:01:00,
2013-05-06 09:11:00,56.0,39.0,30.19,SE,126,3.0,7.0,53,0.00,,,0.00,,2013-05-06 13:11:00,
2013-05-06 09:21:00,57.0,40.0,30.19,SE,131,2.0,5.0,52,0.00,,,0.00,,2013-05-06 13:21:00,
2013-05-06 09:32:00,58.0,39.0,30.19,SE,139,2.0,7.0,49,0.00,,,0.00,,2013-05-06 13:32:00,
2013-05-06 09:42:00,58.0,39.0,30.19,SE,139,2.0,7.0,49,0.00,,,0.00,,2013-05-06 13:42:00,
2013-05-06 09:52:00,59.0,39.0,30.20,ESE,122,3.0,8.0,48,0.00,,,0.00,,2013-05-06 13:52:00,
2013-05-06 10:01:00,60.0,39.0,30.19,SE,140,3.0,6.0,46,0.00,,,0.00,,2013-05-06 14:01:00,
2013-05-06 10:11:00,60.0,39.0,30.19,SE,140,3.0,6.0,46,0.00,,,0.00,,2013-05-06 14:11:00,
2013-05-06 10:21:00,61.0,38.0,30.19,South,184,2.0,6.0,42,0.00,,,0.00,,2013-05-06 14:21:00,
2013-05-06 10:32:00,62.0,38.0,30.19,SSE,153,3.0,6.0,41,0.00,,,0.00,,2013-05-06 14:32:00,
2013-05-06 10:42:00,62.0,38.0,30.19,SSE,153,3.0,6.0,41,0.00,,,0.00,,2013-05-06 14:42:00,
2013-05-06 10:51:00,63.0,38.0,30.19,West,265,2.0,6.0,39,0.00,,,0.00,,2013-05-06 14:51:00,
2013-05-06 11:01:00,64.0,39.0,30.19,ESE,105,3.0,7.0,39,0.00,,,0.00,,2013-05-06 15:01:00,
2013-05-06 11:11:00,64.0,39.0,30.19,ESE,105,3.0,7.0,39,0.00,,,0.00,,2013-05-06 15:11:00,
2013-05-06 11:21:00,65.0,39.0,30.19,SSE,160,2.0,4.0,38,0.00,,,0.00,,2013-05-06 15:21:00,
2013-05-06 11:33:00,66.0,38.0,30.19,South,183,1.0,6.0,36,0.00,,,0.00,,2013-05-06 15:33:00,
2013-05-06 11:42:00,66.0,38.0,30.19,South,183,1.0,6.0,36,0.00,,,0.00,,2013-05-06 15:42:00,
2013-05-06 11:53:00,68.0,39.0,30.18,ESE,117,3.0,7.0,35,0.00,,,0.00,,2013-05-06 15:53:00,
2013-05-06 12:03:00,68.0,39.0,30.18,NNW,333,0.0,3.0,35,0.00,,,0.00,,2013-05-06 16:03:00,
2013-05-06 12:13:00,68.0,39.0,30.18,NNW,333,0.0,3.0,35,0.00,,,0.00,,2013-05-06 16:13:00,
2013-05-06 12:23:00,69.0,39.0,30.18,SE,141,3.0,7.0,34,0.00,,,0.00,,2013-05-06 16:23:00,
2013-05-06 12:33:00,71.0,38.0,30.17,ESE,110,2.0,5.0,30,0.00,,,0.00,,2013-05-06 16:33:00,
2013-05-06 12:42:00,71.0,38.0,30.17,ESE,110,2.0,5.0,30,0.00,,,0.00,,2013-05-06 16:42:00,
2013-05-06 12:52:00,70.0,35.0,30.16,South,186,2.0,6.0,28,0.00,,,0.00,,2013-05-06 16:52:00,
2013-05-06 13:03:00,71.0,35.0,30.16,SSE,156,2.0,7.0,27,0.00,,,0.00,,2013-05-06 17:03:00,
2013-05-06 13:12:00,71.0,35.0,30.16,SSE,156,2.0,7.0,27,0.00,,,0.00,,2013-05-06 17:12:00,
2013-05-06 13:23:00,72.0,35.0,30.15,West,259,2.0,7.0,26,0.00,,,0.00,,2013-05-06 17:23:00,
2013-05-06 13:32:00,72.0,35.0,30.14,SE,133,3.0,6.0,26,0.00,,,0.00,,2013-05-06 17:32:00,
2013-05-06 13:42:00,72.0,35.0,30.14,SE,133,3.0,6.0,26,0.00,,,0.00,,2013-05-06 17:42:00,
2013-05-06 13:52:00,72.0,36.0,30.14,SSW,211,2.0,5.0,27,0.00,,,0.00,,2013-05-06 17:52:00,
2013-05-06 14:01:00,73.0,42.0,30.14,East,95,1.0,4.0,33,0.00,,,0.00,,2013-05-06 18:01:00,
2013-05-06 14:12:00,73.0,42.0,30.14,East,95,1.0,4.0,33,0.00,,,0.00,,2013-05-06 18:12:00,
2013-05-06 14:22:00,72.0,41.0,30.13,ENE,69,0.0,4.0,32,0.00,,,0.00,,2013-05-06 18:22:00,
2013-05-06 14:32:00,73.0,44.0,30.13,West,275,1.0,4.0,35,0.00,,,0.00,,2013-05-06 18:32:00,
2013-05-06 14:43:00,73.0,44.0,30.13,West,275,1.0,4.0,35,0.00,,,0.00,,2013-05-06 18:43:00,
2013-05-06 14:52:00,72.0,44.0,30.12,ENE,71,2.0,5.0,36,0.00,,,0.00,,2013-05-06 18:52:00,
2013-05-06 15:01:00,72.0,44.0,30.12,ENE,66,1.0,2.0,37,0.00,,,0.00,,2013-05-06 19:01:00,
2013-05-06 15:11:00,72.0,44.0,30.12,ENE,66,1.0,2.0,37,0.00,,,0.00,,2013-05-06 19:11:00,
2013-05-06 15:22:00,73.0,45.0,30.11,NE,49,1.0,3.0,37,0.00,,,0.00,,2013-05-06 19:22:00,
2013-05-06 15:32:00,72.0,42.0,30.11,ENE,65,1.0,3.0,34,0.00,,,0.00,,2013-05-06 19:32:00,
2013-05-06 15:42:00,72.0,42.0,30.11,ENE,65,1.0,3.0,34,0.00,,,0.00,,2013-05-06 19:42:00,
2013-05-06 15:52:00,73.0,47.0,30.10,ENE,61,1.0,6.0,39,0.00,,,0.00,,2013-05-06 19:52:00,
2013-05-06 16:02:00,73.0,44.0,30.10,ENE,65,0.0,3.0,35,0.00,,,0.00,,2013-05-06 20:02:00,
2013-05-06 16:11:00,73.0,44.0,30.10,ENE,65,0.0,3.0,35,0.00,,,0.00,,2013-05-06 20:11:00,
2013-05-06 16:21:00,73.0,46.0,30.09,NE,44,1.0,5.0,38,0.00,,,0.00,,2013-05-06 20:21:00,
2013-05-06 16:32:00,73.0,48.0,30.09,NW,304,0.0,5.0,41,0.00,,,0.00,,2013-05-06 20:32:00,
2013-05-06 16:42:00,73.0,48.0,30.09,NW,304,0.0,5.0,41,0.00,,,0.00,,2013-05-06 20:42:00,
2013-05-06 16:52:00,73.0,44.0,30.08,ESE,115,1.0,5.0,36,0.00,,,0.00,,2013-05-06 20:52:00,
2013-05-06 17:01:00,72.0,44.0,30.08,NNW,345,2.0,5.0,37,0.00,,,0.00,,2013-05-06 21:01:00,
2013-05-06 17:11:00,72.0,44.0,30.08,NNW,345,2.0,5.0,37,0.00,,,0.00,,2013-05-06 21:11:00,
2013-05-06 17:21:00,72.0,42.0,30.07,WNW,296,1.0,5.0,34,0.00,,,0.00,,2013-05-06 21:21:00,
2013-05-06 17:33:00,72.0,40.0,30.07,East,80,1.0,3.0,31,0.00,,,0.00,,2013-05-06 21:33:00,
2013-05-06 17:43:00,72.0,40.0,30.07,East,80,1.0,3.0,31,0.00,,,0.00,,2013-05-06 21:43:00,
2013-05-06 17:53:00,72.0,42.0,30.07,NE,53,1.0,3.0,34,0.00,,,0.00,,2013-05-06 21:53:00,
2013-05-06 18:03:00,72.0,46.0,30.06,WSW,243,0.0,0.0,39,0.00,,,0.00,,2013-05-06 22:03:00,
2013-05-06 18:12:00,72.0,46.0,30.06,WSW,243,0.0,0.0,39,0.00,,,0.00,,2013-05-06 22:12:00,
2013-05-06 18:22:00,70.0,41.0,30.06,WSW,254,0.0,3.0,35,0.00,,,0.00,,2013-05-06 22:22:00,
2013-05-06 18:33:00,70.0,40.0,30.06,ENE,78,0.0,2.0,33,0.00,,,0.00,,2013-05-06 22:33:00,
2013-05-06 18:45:00,70.0,40.0,30.06,ENE,78,0.0,2.0,33,0.00,,,0.00,,2013-05-06 22:45:00,
2013-05-06 18:52:00,69.0,38.0,30.06,ENE,68,1.0,2.0,32,0.00,,,0.00,,2013-05-06 22:52:00,
2013-05-06 19:03:00,68.0,41.0,30.06,NW,326,0.0,2.0,37,0.00,,,0.00,,2013-05-06 23:03:00,
2013-05-06 19:12:00,68.0,41.0,30.06,NW,326,0.0,2.0,37,0.00,,,0.00,,2013-05-06 23:12:00,
2013-05-06 19:22:00,67.0,41.0,30.06,West,264,0.0,3.0,38,0.00,,,0.00,,2013-05-06 23:22:00,
2013-05-06 19:32:00,66.0,41.0,30.06,NNW,345,0.0,3.0,40,0.00,,,0.00,,2013-05-06 23:32:00,
2013-05-06 19:42:00,66.0,41.0,30.06,NNW,345,0.0,3.0,40,0.00,,,0.00,,2013-05-06 23:42:00,
2013-05-06 19:52:00,65.0,41.0,30.06,ESE,105,0.0,1.0,41,0.00,,,0.00,,2013-05-06 23:52:00,
2013-05-06 20:01:00,63.0,40.0,30.06,WSW,252,0.0,1.0,42,0.00,,,0.00,,2013-05-07 00:01:00,
2013-05-06 20:12:00,63.0,40.0,30.06,WSW,252,0.0,1.0,42,0.00,,,0.00,,2013-05-07 00:12:00,
2013-05-06 20:21:00,62.0,40.0,30.06,WSW,252,0.0,1.0,44,0.00,,,0.00,,2013-05-07 00:21:00,
2013-05-06 20:32:00,60.0,39.0,30.06,WSW,252,0.0,1.0,46,0.00,,,0.00,,2013-05-07 00:32:00,
2013-05-06 20:42:00,60.0,39.0,30.06,WSW,252,0.0,1.0,46,0.00,,,0.00,,2013-05-07 00:42:00,
2013-05-06 20:52:00,59.0,39.0,30.06,WSW,252,0.0,1.0,48,0.00,,,0.00,,2013-05-07 00:52:00,
2013-05-06 21:01:00,58.0,41.0,30.07,WNW,302,1.0,2.0,53,0.00,,,0.00,,2013-05-07 01:01:00,
2013-05-06 21:11:00,58.0,41.0,30.07,WNW,302,1.0,2.0,53,0.00,,,0.00,,2013-05-07 01:11:00,
2013-05-06 21:21:00,56.0,40.0,30.07,NW,313,0.0,2.0,54,0.00,,,0.00,,2013-05-07 01:21:00,
2013-05-06 21:32:00,56.0,41.0,30.07,NW,313,0.0,1.0,56,0.00,,,0.00,,2013-05-07 01:32:00,
2013-05-06 21:42:00,56.0,41.0,30.07,NW,313,0.0,1.0,56,0.00,,,0.00,,2013-05-07 01:42:00,
2013-05-06 21:52:00,55.0,39.0,30.08,NW,313,0.0,1.0,55,0.00,,,0.00,,2013-05-07 01:52:00,
2013-05-06 22:02:00,55.0,39.0,30.08,NW,313,0.0,0.0,54,0.00,,,0.00,,2013-05-07 02:02:00,
2013-05-06 22:11:00,55.0,39.0,30.08,NW,313,0.0,0.0,54,0.00,,,0.00,,2013-05-07 02:11:00,
2013-05-06 22:22:00,55.0,38.0,30.09,NW,313,0.0,0.0,53,0.00,,,0.00,,2013-05-07 02:22:00,
2013-05-06 22:32:00,55.0,38.0,30.09,NW,326,0.0,1.0,53,0.00,,,0.00,,2013-05-07 02:32:00,
2013-05-06 22:42:00,55.0,38.0,30.09,NW,326,0.0,1.0,53,0.00,,,0.00,,2013-05-07 02:42:00,
2013-05-06 22:52:00,56.0,39.0,30.09,ESE,114,1.0,3.0,52,0.00,,,0.00,,2013-05-07 02:52:00,
2013-05-06 23:02:00,58.0,39.0,30.09,East,91,2.0,5.0,49,0.00,,,0.00,,2013-05-07 03:02:00,
2013-05-06 23:12:00,58.0,39.0,30.09,East,91,2.0,5.0,49,0.00,,,0.00,,2013-05-07 03:12:00,
2013-05-06 23:22:00,60.0,40.0,30.09,East,98,2.0,7.0,48,0.00,,,0.00,,2013-05-07 03:22:00,
2013-05-06 23:32:00,60.0,40.0,30.09,ESE,115,2.0,5.0,48,0.00,,,0.00,,2013-05-07 03:32:00,
2013-05-06 23:43:00,60.0,40.0,30.09,ESE,115,2.0,5.0,48,0.00,,,0.00,,2013-05-07 03:43:00,
2013-05-06 23:53:00,60.0,41.0,30.09,South,176,2.0,4.0,50,0.00,,,0.00,,2013-05-07 03:53:00,